Flag for Russia Weather past 2 weeks in Kazan, Russia

23 °F

Passing clouds.

Feels Like: 16 °F
Forecast: 18 / 24 °F
Wind: 6 mph from Northeast

Location: Kazan'

Current Time: Nov 26, 2015 at 3:38:55 AM

Latest Report: Nov 26, 2015 at 3:00 AM

Visibility: N/A

Pressure: 30.09 "Hg

Humidity: 100%

Dew point: 23 °F

Location of KazanLocation

Historic Weather in Kazan — Graph


Kazan temperature yesterday

Maximum temperature yesterday: 32 °F (at 11:30 AM)
Minimum temperature yesterday: 25 °F (at 10:30 PM)
Average temperature yesterday: 28 °F

Past Weeks' High & Low Weather Summary

High48 °F (Nov 23, 10:30 AM)100% (Nov 11, 4:00 AM)30.24 "Hg (Nov 11, 4:00 AM)
Low14 °F (Nov 14, 9:30 PM)69% (Nov 24, 12:00 PM)29.39 "Hg (Nov 21, 1:00 PM)
Average28 °F94%29.89 "Hg
* Reported Nov 11 2:00 AM — Nov 26 2:00 AM, Kazan, Weather by CustomWeather, © 2015

Note: Actual official high and low records may vary slightly from our data, if they occured in-between our weather recording intervals... More about our weather records


Kazan weather history for previous 24 hours

Time TempWeatherWind HumidityBarometerVisibility
2:00 AM
Thu, Nov 26
25 °FPassing clouds.6 mph93%30.12 "HgN/A
1:30 AM25 °FClear.6 mph100%30.12 "Hg10 mi
1:00 AM27 °FPassing clouds.6 mph93%30.12 "HgN/A
12:30 AM27 °FPassing clouds.6 mph93%30.12 "HgN/A
12:00 AM27 °FPassing clouds.3 mph93%30.12 "HgN/A
11:30 PM
Wed, Nov 25
27 °FClear.6 mph93%30.12 "Hg10 mi
11:00 PM25 °FClear.6 mph100%30.12 "Hg10 mi
10:30 PM25 °FClear.3 mph100%30.12 "Hg10 mi
10:00 PM27 °FPassing clouds.3 mph93%30.12 "HgN/A
9:30 PM27 °FPassing clouds.1 mph100%30.12 "HgN/A
9:00 PM27 °FPassing clouds.1 mph93%30.12 "HgN/A
8:30 PM27 °FPassing clouds.1 mph100%30.12 "HgN/A
8:00 PM27 °FPassing clouds.1 mph93%30.12 "HgN/A
7:30 PM27 °FPassing clouds.1 mph93%30.15 "HgN/A
7:00 PM27 °FPassing clouds.1 mph100%30.15 "HgN/A
6:30 PM27 °FPassing clouds.1 mph100%30.15 "HgN/A
6:00 PM28 °FPassing clouds.3 mph93%30.15 "HgN/A
5:30 PM28 °FPassing clouds.3 mph86%30.15 "HgN/A
5:00 PM27 °FPassing clouds.6 mph93%30.15 "HgN/A
4:30 PM27 °FPassing clouds.3 mph93%30.15 "HgN/A
4:00 PM27 °FPartly sunny.3 mph93%30.15 "HgN/A
3:30 PM28 °FPartly sunny.3 mph86%30.15 "HgN/A
3:00 PM30 °FPartly sunny.3 mph86%30.15 "HgN/A
2:30 PM30 °FScattered clouds.1 mph80%30.15 "HgN/A
2:00 PM30 °FScattered clouds.3 mph80%30.15 "HgN/A
1:30 PM32 °FScattered clouds.1 mph75%30.15 "HgN/A
1:00 PM32 °FPassing clouds.No wind75%30.15 "HgN/A
12:30 PM32 °FPassing clouds.1 mph75%30.15 "HgN/A
12:00 PM32 °FScattered clouds.No wind75%30.15 "HgN/A
11:30 AM32 °FScattered clouds.1 mph80%30.18 "HgN/A
11:00 AM30 °FPassing clouds.1 mph80%30.18 "HgN/A
10:30 AM30 °FSunny.1 mph86%30.18 "Hg10 mi
10:00 AM28 °FSunny.1 mph100%30.18 "Hg10 mi
9:30 AM28 °FClear.3 mph93%30.18 "Hg6 mi
9:00 AM27 °FClear.3 mph100%30.18 "Hg5 mi
8:30 AM27 °FClear.3 mph93%30.18 "Hg10 mi
8:00 AM28 °FClear.1 mph93%30.18 "Hg10 mi
7:30 AM28 °FClear.3 mph93%30.18 "Hg10 mi
7:00 AM28 °FClear.6 mph93%30.15 "Hg10 mi
6:30 AM28 °FClear.3 mph93%30.18 "Hg10 mi
6:00 AM28 °FClear.1 mph93%30.18 "Hg10 mi
5:30 AM28 °FOvercast.3 mph93%30.18 "HgN/A
5:00 AM28 °FClear.3 mph86%30.18 "Hg10 mi
4:30 AM28 °FClear.3 mph93%30.18 "Hg10 mi
4:00 AM28 °FOvercast.1 mph86%30.18 "HgN/A
3:00 AM28 °FPassing clouds.1 mph86%30.21 "HgN/A
Weather by CustomWeather, © 2015

See weather overviewHow to use our weather pages